Find Starlink 32048

NORAD ID: 60156 Int'l Des: 2024-120 Owner: SPXS Country: US Constellation: starlink operational
LEOCIRCULAR

現在のビュー

3D地球を読み込み中...

About Starlink 32048

Starlink 32048 (NORAD 60156) is a starlink constellation satellite (v2 mini) launched Jun 27, 2024 by SPXS of US. It operates in LEO, CIRCULAR orbit with a mass of 730.00 kg.

Starlink 32048について

説明を読み込み中...

次回通過

Passes for default location (London). Set your location on the main map for personalized predictions.

高度履歴

Loading altitude history...

軌道要素

1 60156U 24120X 26171.34855161 .00000776 00000-0 34109-4 0 9998
2 60156 53.1590 202.3783 0001088 75.3883 284.7241 15.34393304112107
Epoch: Jun 20, 2026 • Age: 22 hours

現在のステータス

高度 466.3 km
速度 7.64 km/s
衛星直下点 43.26°N, 124.46°W
打ち上げ日 Jun 27, 2024
運用期間 1.9 years
タイプ internet

技術仕様

分類 Payload
質量 730.00 kg
乾燥質量 700.00 kg
総質量 730.00 kg
長さ 0.30 m
直径 4.10 m
スパン 29.00 m
形状 Box + pan
製造者 SPXS
バスタイプ Starlink V2M
フェーズステータス In Orbit
所有者/国 SPXS/US

Most Searched